This demonstration page uses our WeatherBlox Daily Observations layout. Learn more.

Left ArrowRight Arrow

Hourly Observations for April 17, 2022

Temp ( °F °C ) Dew Point ( °F °C ) Humidity (%) Winds ( mph kmh ) Pressure ( in mb ) Visibility ( mi km ) Precip ( " mm )
12:56 am 00:56 Mostly Cloudy 42 5.7 16 -9 34 34 E 8 13 30.25 1024 10 16 0.00 0.00
1:56 am 01:56 Mostly Cloudy 41 5.2 18 -8 38 38 E 9 15 30.23 1024 10 16 0.00 0.00
2:56 am 02:56 Cloudy 41 5.1 17 -8.1 38 38 E 9 15 30.22 1023 10 16 0.00 0.00
3:56 am 03:56 Cloudy 41 4.8 18 -8 39 39 E 14 22 30.19 1022 10 16 0.00 0.00
4:56 am 04:56 Mostly Cloudy 40 4.4 18 -7.7 41 41 E 10 17 30.19 1022 10 16 0.00 0.00
5:56 am 05:56 Mostly Cloudy 39 3.9 20 -6.7 46 46 ESE 8 13 30.20 1023 10 16 0.00 0.00
6:56 am 06:56 Sunny 37 3 23 -5.2 55 55 ESE 8 13 30.23 1024 10 16 0.00 0.00
7:56 am 07:56 Sunny 37 2.9 24 -4.3 60 60 ESE 6 9 30.25 1024 10 16 0.00 0.00
8:56 am 08:56 Mostly Cloudy 38 3.2 24 -4.5 57 57 E 12 19 30.23 1024 10 16 0.00 0.00
9:56 am 09:56 Mostly Cloudy 38 3.6 24 -4.4 56 56 ESE 7 11 30.24 1024 10 16 0.00 0.00
10:56 am 10:56 Cloudy 40 4.2 24 -4.5 54 54 ESE 8 13 30.25 1025 10 16 0.00 0.00
11:56 am 11:56 Cloudy 40 4.5 25 -4 54 54 SE 3 6 30.27 1025 10 16 0.00 0.00
12:00 pm 12:00 Cloudy with Light Rain/Snow 39 4 27 -3 61 61 SSE 6 9 30.27 1025 9 14 0.00 0.00
12:56 pm 12:56 Partly Cloudy with Light Rain 39 4 28 -2 65 65 ESE 6 9 30.24 1024 9 14 0.00 0.00
1:15 pm 13:15 Cloudy 39 4 28 -2 65 65 ESE 6 9 30.22 1024 10 16 0.00 0.00
1:56 pm 13:56 Cloudy 40 4.7 28 -2 62 62 SE 12 19 30.20 1023 10 16 0.00 0.00
2:56 pm 14:56 Cloudy 41 5.1 30 -1.2 64 64 SE 9 15 30.20 1023 10 16 0.00 0.00
3:56 pm 15:56 Cloudy 42 5.6 31 -0.7 64 64 SSE 14 22 30.19 1023 10 16 0.00 0.00
4:56 pm 16:56 Cloudy 42 5.6 31 -0.7 64 64 SE 10 17 30.19 1023 10 16 0.00 0.00
5:56 pm 17:56 Cloudy 41 5.2 31 -0.8 66 66 SE 7 11 30.21 1023 10 16 0.00 0.00
6:56 pm 18:56 Cloudy 41 4.8 31 -0.8 67 67 SE 10 17 30.22 1023 10 16 0.00 0.00
7:56 pm 19:56 Mostly Cloudy 38 3.6 30 -1.2 71 71 SE 12 19 30.21 1023 10 16 0.00 0.00
8:56 pm 20:56 Mostly Cloudy 36 2.2 29 -1.4 77 77 ESE 7 11 30.22 1023 10 16 0.00 0.00
9:56 pm 21:56 Clear 35 1.6 29 -1.5 80 80 Calm 30.28 1025 10 16 0.00 0.00
10:56 pm 22:56 Clear 34 1.1 29 -1.6 82 82 WSW 3 6 30.30 1026 10 16 0.00 0.00
11:56 pm 23:56 Clear 34 0.9 29 -1.7 83 83 Calm 30.30 1026 10 16 0.00 0.00

Powered by AerisWeather